Hourly Data Report for October 01, 2020

SHEARWATER RCS
NOVA SCOTIA
Current Station Operator: ECCC - MSC

44°37'47.000" N
63°30'48.000" W
24.00 m
8205092
71264
AAW

Download Data

Hourly Data (October 2020)
Hourly Data Report for October 1, 2020
TIME Temp Definition
°C
Dew Point Definition
°C
Rel Hum Definition
%
Wind Dir Definition
10's deg

Wind Spd Definition
km/h
Visibility Definition
km
Stn Press Definition
kPa
Hmdx Definition


Wind Chill Definition


Weather Definition


00:00 15.9 15.2 95 23 14   100.75     LegendNANA
01:00 15.4 14.7 96 22 12   100.77     LegendNANA
02:00 15.3 14.6 96 24 12   100.81     LegendNANA
03:00 14.8 14.0 95 23 12   100.80     LegendNANA
04:00 14.3 13.6 96 24 8   100.87     LegendNANA
05:00 13.6 13.0 96 24 3   100.92     LegendNANA
06:00 12.9 12.3 96 35 3   100.98     LegendNANA
07:00 13.6 13.0 96 21 4   101.05     LegendNANA
08:00 15.5 14.0 91 22 4   101.09     LegendNANA
09:00 17.2 14.4 83 20 8   101.13     LegendNANA
10:00 18.8 14.3 75 22 11   101.15     LegendNANA
11:00 19.4 13.9 71 18 14   101.14     LegendNANA
12:00 19.5 13.7 69 18 15   101.15     LegendNANA
13:00 19.2 14.4 74 16 14   101.15     LegendNANA
14:00 19.3 10.7 57 19 17   101.16     LegendNANA
15:00 19.0 14.8 77 18 14   101.17     LegendNANA
16:00 17.4 14.9 85 17 15   101.19     LegendNANA
17:00 15.9 14.4 91 18 14   101.23     LegendNANA
18:00 15.2 14.0 92 18 12   101.29     LegendNANA
19:00 15.3 14.3 94 18 10   101.30     LegendNANA
20:00 15.1 14.1 94 17 8   101.34     LegendNANA
21:00 14.6 13.6 94 19 3   101.34     LegendNANA
22:00 14.4 13.3 93 22 4   101.37     LegendNANA
23:00 13.4 12.5 95   0   101.40     LegendNANA

Notes on Data Quality.

Legend

  • E = Estimated
  • M = Missing
  • NA = Not Available*
  • [empty] = Indicates an unobserved value
Date modified: